QPF
0.00 0.00 0.00 0.00 0.00 0.00 0.00 0.00 0.00 0.00 0.00 0.00 0.00 0.00 0.00 0.00 0.00 0.00 0.00 0.00 0.00 0.00 0.00 0.00 0.00 0.00 0.00 0.00 0.00 0.00 0.00 0.00 0.00 0.00 0.00 0.00 0.00 0.00 0.00 0.00 0.00 0.00 0.00 0.00
0.00 0.00 0.00 0.00 0.00 0.00 0.00 0.00 0.00 0.00 0.00 0.00 0.00 0.00 0.00 0.00 0.00 0.00 0.00 0.00 0.00 0.00 0.00 0.00 0.00 0.00 0.00 0.00 0.00 0.00 0.00 0.00 0.00 0.00 0.00 0.00 0.00 0.00 0.00 0.00 0.00 0.00 0.00 0.00
0.00 0.00 0.00 0.00 0.00 0.00 0.00 0.00 0.00 0.00 0.00 0.00 0.00 0.00 0.00 0.00 0.00 0.00 0.00 0.00 0.00 0.00 0.00 0.00 0.00 0.00 0.00 0.00 0.00 0.00 0.00 0.00 0.00 0.00 0.00 0.00 0.00 0.00 0.00 0.00 0.00 0.00 0.00 0.00
0.00 0.00 0.00 0.00 0.00 0.00 0.00 0.00 0.00 0.00 0.00 0.00 0.00 0.00 0.00 0.00 0.00 0.00 0.00 0.00 0.00 0.00 0.00 0.00 0.00 0.00 0.00 0.00 0.00 0.00 0.00 0.00 0.00 0.00 0.00 0.00 0.00 0.00 0.00 0.00 0.00 0.00 0.00 0.00
0.00 0.00 0.00 0.00 0.00 0.00 0.00 0.00 0.00 0.00 0.00 0.00 0.00 0.00 0.00 0.00 0.00 0.00 0.00 0.00 0.00 0.00 0.00 0.00 0.00 0.00 0.00 0.00 0.00 0.00 0.00 0.00 0.00 0.00 0.00 0.00 0.00 0.00 0.00 0.00 0.00 0.00 0.00 0.00
0.00 0.00 0.00 0.00 0.00 0.00 0.00 0.00 0.00 0.00 0.00 0.00 0.00 0.00 0.00 0.00 0.00 0.00 0.00 0.00 0.00 0.00 0.00 0.00 0.00 0.00 0.00 0.00 0.00 0.00 0.00 0.00 0.00 0.00 0.00 0.00 0.00 0.00 0.00 0.00 0.00 0.00 0.00 0.00
0.00 0.00 0.00 0.00 0.00 0.00 0.00 0.00 0.00 0.00 0.00 0.00 0.00 0.00 0.00 0.00 0.00 0.00 0.00 0.00 0.00 0.00 0.00 0.00 0.00 0.00 0.00 0.00 0.00 0.00 0.00 0.00 0.00 0.00 0.00 0.00 0.00 0.00 0.00 0.00 0.00 0.00 0.00 0.00
0.00 0.00 0.00 0.00 0.00 0.00 0.00 0.00 0.00 0.00 0.00 0.00 0.00 0.00 0.00 0.00 0.00 0.00 0.00 0.00 0.00 0.00 0.00 0.00 0.00 0.00 0.00 0.00 0.00 0.00 0.00 0.00 0.00 0.00 0.00 0.00 0.00 0.00 0.00 0.00 0.00 0.00 0.00 0.00
0.00 0.00 0.00 0.00 0.00 0.00 0.00 0.00 0.00 0.00 0.00 0.00 0.00 0.00 0.00 0.00 0.00 0.00 0.00 0.00 0.00 0.00 0.00 0.00 0.00 0.00 0.00 0.00 0.00 0.00 0.00 0.00 0.00 0.00 0.00 0.00 0.00 0.00 0.00 0.00 0.00 0.00 0.00 0.00
0.01 0.00 0.00 0.00 0.00 0.00 0.00 0.00 0.00 0.00 0.00 0.00 0.00 0.00 0.00 0.00 0.00 0.00 0.00 0.00 0.00 0.00 0.00 0.00 0.00 0.00 0.00 0.00 0.00 0.00 0.00 0.00 0.00 0.00 0.00 0.00 0.00 0.00 0.00 0.00 0.00 0.00 0.00 0.00
0.01 0.01 0.00 0.00 0.00 0.00 0.00 0.00 0.00 0.00 0.00 0.00 0.00 0.00 0.00 0.00 0.00 0.00 0.00 0.00 0.00 0.00 0.00 0.00 0.00 0.00 0.00 0.00 0.00 0.00 0.00 0.00 0.00 0.00 0.00 0.00 0.00 0.00 0.00 0.00 0.00 0.00 0.00 0.00
0.00 0.01 0.00 0.00 0.00 0.00 0.00 0.00 0.00 0.00 0.00 0.00 0.00 0.00 0.00 0.00 0.00 0.00 0.00 0.00 0.00 0.00 0.00 0.00 0.00 0.00 0.00 0.00 0.00 0.00 0.00 0.00 0.00 0.00 0.00 0.00 0.00 0.00 0.00 0.00 0.00 0.00 0.00 0.00
0.00 0.01 0.00 0.00 0.00 0.00 0.00 0.00 0.00 0.00 0.00 0.00 0.00 0.00 0.00 0.00 0.00 0.00 0.00 0.00 0.00 0.00 0.00 0.00 0.00 0.00 0.00 0.00 0.00 0.00 0.00 0.00 0.00 0.00 0.00 0.00 0.00 0.00 0.00 0.00 0.00 0.00 0.00 0.00
0.00 0.02 0.00 0.00 0.00 0.00 0.00 0.00 0.00 0.00 0.00 0.00 0.00 0.00 0.00 0.00 0.00 0.00 0.00 0.00 0.00 0.00 0.00 0.00 0.00 0.00 0.00 0.00 0.00 0.00 0.00 0.00 0.00 0.00 0.00 0.00 0.00 0.00 0.00 0.00 0.00 0.00 0.00 0.00
0.01 0.00 0.00 0.00 0.00 0.00 0.00 0.00 0.00 0.00 0.00 0.00 0.00 0.00 0.00 0.00 0.00 0.00 0.00 0.00 0.00 0.00 0.00 0.00 0.00 0.00 0.00 0.00 0.00 0.00 0.00 0.00 0.00 0.00 0.00 0.00 0.00 0.00 0.00 0.00 0.00 0.00 0.00 0.00
0.02 0.00 0.00 0.00 0.00 0.00 0.00 0.00 0.00 0.00 0.00 0.00 0.00 0.00 0.00 0.00 0.00 0.00 0.00 0.00 0.00 0.00 0.00 0.00 0.00 0.00 0.00 0.00 0.00 0.00 0.00 0.00 0.00 0.00 0.00 0.00 0.00 0.00 0.00 0.00 0.00 0.00 0.00 0.00
0.12 0.04 0.01 0.01 0.01 0.04 0.03 0.00 0.00 0.00 0.00 0.00 0.00 0.00 0.00 0.00 0.00 0.00 0.00 0.00 0.00 0.00 0.00 0.00 0.00 0.00 0.00 0.00 0.00 0.00 0.00 0.00 0.00 0.00 0.00 0.00 0.00 0.00 0.00 0.00 0.00 0.00 0.00 0.00
0.06 0.05 0.05 0.02 0.02 0.05 0.01 0.00 0.00 0.00 0.00 0.00 0.00 0.00 0.00 0.00 0.00 0.00 0.00 0.00 0.00 0.00 0.00 0.00 0.00 0.00 0.00 0.00 0.00 0.00 0.00 0.00 0.00 0.00 0.00 0.00 0.00 0.00 0.00 0.00 0.00 0.00 0.00 0.00
0.02 0.03 0.03 0.01 0.00 0.00 0.00 0.00 0.00 0.00 0.00 0.00 0.00 0.00 0.00 0.00 0.00 0.00 0.00 0.00 0.00 0.00 0.00 0.00 0.00 0.00 0.00 0.00 0.00 0.00 0.00 0.00 0.00 0.00 0.00 0.00 0.00 0.00 0.00 0.00 0.00 0.00 0.00 0.00
0.02 0.03 0.04 0.01 0.00 0.00 0.00 0.00 0.00 0.00 0.00 0.00 0.00 0.00 0.00 0.00 0.00 0.00 0.00 0.00 0.00 0.00 0.00 0.00 0.00 0.00 0.00 0.00 0.00 0.00 0.00 0.00 0.00 0.00 0.00 0.00 0.00 0.00 0.00 0.00 0.00 0.00 0.00 0.01
0.03 0.04 0.03 0.00 0.00 0.00 0.00 0.00 0.00 0.00 0.00 0.00 0.00 0.00 0.00 0.00 0.00 0.00 0.00 0.00 0.00 0.00 0.00 0.00 0.00 0.00 0.00 0.00 0.00 0.00 0.00 0.00 0.00 0.00 0.00 0.00 0.00 0.00 0.00 0.00 0.00 0.00 0.00 0.00
0.00 0.00 0.01 0.00 0.00 0.00 0.00 0.00 0.00 0.00 0.00 0.00 0.00 0.00 0.00 0.00 0.00 0.00 0.00 0.00 0.00 0.00 0.00 0.00 0.00 0.00 0.00 0.00 0.00 0.00 0.00 0.00 0.00 0.00 0.00 0.00 0.00 0.00 0.00 0.00 0.00 0.00 0.00 0.00
0.00 0.00 0.00 0.00 0.00 0.00 0.00 0.00 0.00 0.00 0.00 0.00 0.00 0.00 0.00 0.00 0.00 0.00 0.00 0.00 0.00 0.00 0.00 0.00 0.00 0.00 0.00 0.00 0.00 0.00 0.00 0.00 0.00 0.00 0.00 0.00 0.00 0.00 0.00 0.00 0.00 0.00 0.00 0.00
0.00 0.00 0.00 0.00 0.00 0.00 0.00 0.00 0.00 0.00 0.00 0.00 0.00 0.00 0.00 0.00 0.00 0.00 0.00 0.00 0.00 0.00 0.00 0.00 0.00 0.00 0.00 0.00 0.00 0.00 0.00 0.00 0.00 0.00 0.00 0.00 0.00 0.00 0.00 0.00 0.00 0.00 0.00 0.00
0.00 0.00 0.00 0.00 0.00 0.00 0.00 0.00 0.00 0.00 0.00 0.00 0.00 0.00 0.00 0.00 0.00 0.00 0.00 0.00 0.00 0.00 0.00 0.00 0.00 0.00 0.00 0.00 0.00 0.00 0.00 0.00 0.00 0.00 0.00 0.00 0.00 0.00 0.00 0.00 0.00 0.00 0.00 0.00
0.00 0.00 0.00 0.00 0.00 0.00 0.00 0.00 0.00 0.00 0.00 0.00 0.00 0.00 0.00 0.00 0.00 0.00 0.00 0.00 0.00 0.00 0.00 0.00 0.00 0.00 0.00 0.00 0.00 0.00 0.00 0.00 0.00 0.00 0.00 0.00 0.00 0.00 0.00 0.00 0.00 0.00 0.00 0.00
MSLP
1010.67 1010.29 1009.02 1008.70 1008.72 1008.11 1008.44 1007.97 1007.89 1008.52 1009.86 1009.88 1008.41 1007.16 1006.19 1006.06 1006.45 1006.92 1006.78 1006.98 1007.57 1008.41 1009.44 1010.51 1011.16 1011.75 1012.19 1012.43 1012.76 1013.02 1013.33 1013.60 1013.83 1013.78 1013.57 1013.38 1013.09 1012.98 1012.70 1012.51 1012.41 1012.31 1012.25 1012.02
1010.69 1009.55 1008.83 1009.04 1008.88 1009.08 1008.90 1008.54 1008.39 1009.41 1010.11 1010.08 1008.14 1006.54 1005.49 1005.04 1004.98 1005.68 1006.34 1006.73 1007.12 1008.14 1009.30 1010.35 1010.99 1011.57 1012.04 1012.44 1012.79 1013.19 1013.40 1013.69 1013.94 1013.84 1013.88 1013.82 1013.56 1013.13 1012.80 1012.56 1012.41 1012.29 1012.12 1011.90
1009.55 1009.73 1009.82 1009.68 1009.79 1009.64 1009.43 1009.06 1009.08 1009.78 1009.98 1009.68 1008.72 1005.68 1004.32 1004.84 1005.49 1005.99 1006.40 1006.45 1006.88 1007.74 1008.92 1009.95 1010.68 1011.34 1011.99 1012.38 1012.98 1013.35 1013.53 1013.86 1013.78 1013.95 1013.92 1013.76 1013.52 1012.91 1012.45 1012.06 1011.81 1011.72 1011.67 1011.58
1009.89 1010.28 1010.41 1010.37 1010.02 1010.05 1009.93 1010.15 1010.26 1010.33 1009.95 1009.04 1008.66 1006.00 1004.04 1004.06 1004.79 1005.48 1006.12 1006.30 1006.77 1007.66 1008.78 1009.53 1010.39 1011.25 1011.84 1012.62 1013.14 1013.31 1013.58 1013.68 1013.87 1013.96 1013.83 1013.80 1013.50 1012.92 1012.55 1012.23 1011.96 1011.75 1011.61 1011.41
1010.11 1010.58 1010.89 1010.89 1010.66 1010.54 1010.70 1011.06 1010.89 1010.75 1010.18 1009.74 1008.32 1007.27 1003.68 1004.20 1004.10 1004.56 1005.65 1006.48 1007.03 1007.80 1008.72 1009.53 1010.40 1011.15 1011.96 1012.63 1013.07 1013.32 1013.45 1013.73 1013.79 1013.83 1013.92 1013.80 1013.36 1013.05 1012.61 1012.27 1011.84 1011.58 1011.30 1011.04
1010.68 1011.32 1011.26 1011.34 1011.93 1011.70 1011.78 1011.57 1011.39 1011.01 1010.40 1009.54 1007.69 1007.06 1003.72 1003.17 1003.05 1003.49 1004.94 1006.18 1006.92 1007.82 1008.72 1009.55 1010.44 1011.25 1011.79 1012.36 1012.78 1013.02 1013.37 1013.41 1013.48 1013.74 1013.89 1013.64 1013.28 1012.95 1012.54 1012.19 1011.89 1011.54 1011.22 1010.81
1010.80 1011.22 1011.79 1011.96 1012.34 1012.49 1012.20 1011.62 1011.42 1011.17 1010.56 1008.91 1008.43 1007.43 1003.68 1003.44 1003.76 1003.80 1004.64 1005.68 1006.60 1007.48 1008.49 1009.34 1010.10 1010.75 1011.46 1012.07 1012.65 1013.07 1013.35 1013.29 1013.60 1013.70 1013.65 1013.39 1013.15 1012.89 1012.49 1012.23 1011.89 1011.58 1011.08 1010.56
1009.77 1011.01 1011.46 1011.78 1011.79 1011.65 1011.83 1011.61 1010.77 1010.11 1009.73 1008.65 1008.79 1006.34 1003.51 1003.71 1004.04 1004.63 1005.34 1005.94 1006.28 1007.04 1008.04 1008.90 1009.81 1010.61 1011.16 1011.86 1012.59 1013.06 1013.10 1013.39 1013.50 1013.40 1013.43 1013.25 1013.07 1012.68 1012.30 1012.12 1011.79 1011.37 1010.89 1010.36
1009.24 1010.46 1012.08 1012.35 1012.30 1012.49 1012.35 1012.12 1011.36 1010.63 1010.53 1009.21 1006.35 1005.04 1003.60 1003.86 1004.41 1005.00 1005.54 1006.08 1006.46 1006.94 1007.79 1008.78 1009.72 1010.49 1011.16 1011.89 1012.59 1013.05 1013.30 1013.42 1013.44 1013.35 1013.28 1012.98 1012.75 1012.42 1012.10 1011.84 1011.46 1010.94 1010.45 1009.84
1009.51 1010.82 1012.07 1012.86 1013.13 1012.58 1012.56 1012.09 1011.80 1011.04 1009.91 1008.27 1006.07 1005.02 1003.36 1003.41 1003.55 1004.38 1005.19 1005.56 1005.91 1006.72 1007.60 1008.54 1009.65 1010.48 1011.23 1012.05 1012.63 1013.01 1013.34 1013.47 1013.46 1013.34 1013.13 1012.75 1012.50 1012.18 1011.73 1011.32 1010.79 1010.36 1009.84 1009.35
1009.60 1010.61 1012.20 1012.58 1012.06 1011.50 1012.67 1012.12 1011.55 1010.53 1009.17 1007.73 1006.06 1004.19 1003.00 1002.74 1003.16 1004.14 1004.81 1005.36 1005.72 1006.57 1007.32 1008.33 1009.51 1010.51 1011.32 1012.04 1012.39 1012.94 1013.26 1013.34 1013.35 1013.28 1012.95 1012.57 1012.21 1011.81 1011.39 1010.90 1010.39 1009.94 1009.36 1008.77
1010.11 1010.51 1010.73 1010.89 1011.16 1011.37 1011.15 1010.95 1010.66 1009.75 1009.43 1008.18 1006.90 1004.43 1003.66 1003.60 1003.86 1004.34 1005.15 1005.78 1006.32 1006.94 1007.57 1008.34 1009.41 1010.51 1011.22 1011.79 1012.32 1012.87 1013.12 1013.31 1013.36 1013.14 1012.89 1012.40 1012.03 1011.61 1011.14 1010.72 1010.15 1009.60 1008.90 1008.26
1010.31 1010.46 1010.62 1010.74 1011.36 1011.40 1010.90 1010.41 1010.23 1010.04 1009.35 1008.01 1006.93 1004.92 1004.63 1004.67 1005.04 1005.53 1005.99 1006.37 1006.92 1007.46 1008.06 1008.77 1009.65 1010.42 1011.18 1011.76 1012.33 1012.74 1013.12 1013.37 1013.35 1013.05 1012.76 1012.36 1011.94 1011.45 1010.87 1010.29 1009.72 1009.07 1008.40 1007.71
1010.48 1010.67 1009.72 1008.86 1009.09 1009.13 1009.75 1009.23 1009.52 1009.60 1008.95 1007.56 1006.02 1005.64 1005.35 1005.40 1005.91 1006.34 1006.73 1006.91 1007.38 1007.91 1008.51 1009.15 1009.78 1010.41 1011.23 1011.86 1012.37 1012.85 1013.32 1013.45 1013.31 1013.11 1012.74 1012.44 1011.91 1011.35 1010.69 1010.08 1009.41 1008.76 1008.00 1007.14
1011.55 1010.79 1010.08 1009.13 1009.14 1009.25 1008.99 1008.72 1008.77 1008.82 1007.98 1007.40 1006.18 1005.67 1005.47 1005.98 1006.60 1007.03 1007.25 1007.63 1007.97 1008.26 1008.78 1009.31 1009.75 1010.53 1011.31 1011.98 1012.50 1013.11 1013.51 1013.54 1013.42 1013.09 1012.74 1012.32 1011.88 1011.19 1010.49 1009.80 1009.16 1008.41 1007.61 1006.84
1011.92 1010.95 1010.43 1009.48 1009.03 1009.01 1008.73 1008.04 1007.96 1008.04 1008.01 1007.41 1006.76 1004.93 1005.68 1005.45 1006.15 1007.09 1007.37 1007.86 1008.04 1008.37 1008.72 1009.29 1009.82 1010.49 1011.16 1011.86 1012.31 1012.96 1013.34 1013.49 1013.39 1013.05 1012.77 1012.23 1011.69 1010.92 1010.21 1009.64 1009.11 1008.22 1007.45 1006.63
1011.63 1011.50 1010.88 1009.68 1008.97 1008.70 1007.51 1005.48 1006.17 1006.53 1006.53 1006.37 1005.81 1003.86 1004.73 1005.43 1006.01 1006.75 1006.96 1007.64 1007.83 1008.11 1008.59 1009.08 1009.59 1010.13 1010.86 1011.43 1011.94 1012.53 1012.97 1013.08 1013.01 1012.81 1012.51 1012.11 1011.64 1010.94 1010.24 1009.61 1009.00 1008.16 1007.31 1006.57
1011.34 1010.89 1010.27 1009.66 1009.18 1007.36 1004.11 1003.54 1003.50 1003.83 1003.93 1004.34 1003.67 1003.42 1004.13 1005.05 1005.72 1006.17 1006.39 1006.96 1007.26 1007.71 1008.11 1008.54 1009.19 1009.88 1010.48 1011.11 1011.75 1012.20 1012.68 1012.66 1012.75 1012.70 1012.35 1011.99 1011.64 1011.07 1010.28 1009.66 1008.94 1008.26 1007.56 1006.82
1010.87 1010.72 1009.99 1009.31 1007.94 1005.26 1003.64 1003.30 1003.52 1003.44 1002.42 1002.34 1002.71 1002.34 1003.48 1004.46 1005.34 1005.16 1005.47 1006.07 1006.61 1007.09 1007.42 1007.95 1008.57 1009.29 1010.11 1010.85 1011.27 1011.96 1012.46 1012.31 1012.45 1012.30 1011.98 1011.76 1011.35 1010.89 1010.21 1009.67 1009.14 1008.53 1007.83 1007.09
1010.67 1010.67 1009.85 1009.23 1007.34 1005.14 1003.63 1003.65 1003.77 1003.73 1002.29 1000.88 1000.99 1001.39 1002.83 1004.07 1004.75 1004.74 1005.29 1005.99 1006.52 1007.04 1007.58 1007.99 1008.46 1009.15 1009.92 1010.54 1010.94 1011.84 1011.95 1011.97 1011.87 1011.74 1011.61 1011.53 1011.24 1010.88 1010.40 1009.88 1009.43 1008.88 1008.43 1007.84
1009.94 1010.00 1009.04 1008.01 1006.66 1004.73 1003.27 1003.82 1003.44 1004.02 1002.52 1001.43 1001.15 1001.50 1002.52 1003.41 1004.06 1004.67 1005.21 1005.85 1006.44 1006.80 1007.39 1008.01 1008.48 1008.96 1009.50 1010.07 1010.64 1011.16 1011.38 1011.18 1011.04 1011.23 1011.50 1011.48 1011.13 1010.73 1010.49 1009.97 1009.57 1009.05 1008.61 1008.20
1007.27 1007.83 1007.66 1007.38 1006.53 1004.82 1003.34 1004.25 1003.68 1002.54 1002.14 1002.04 1002.02 1002.30 1002.74 1003.03 1003.73 1004.52 1005.04 1005.65 1006.13 1006.48 1007.00 1007.62 1008.36 1008.60 1009.14 1009.64 1009.99 1010.33 1010.43 1010.28 1010.54 1010.81 1011.09 1011.07 1010.83 1010.37 1010.01 1009.70 1009.39 1009.11 1008.71 1008.25
1005.79 1004.50 1004.95 1004.88 1003.62 1002.73 1002.72 1002.53 1002.37 1002.40 1002.46 1002.57 1002.55 1002.72 1003.01 1003.38 1003.55 1003.80 1004.23 1004.75 1005.21 1005.65 1006.12 1006.72 1007.50 1007.97 1008.34 1008.94 1009.06 1009.33 1009.13 1009.65 1010.09 1010.34 1010.57 1010.72 1010.72 1010.46 1010.02 1009.68 1009.42 1009.19 1009.02 1008.72
1004.88 1004.36 1004.25 1004.22 1002.13 1002.25 1002.27 1002.41 1002.39 1002.54 1002.61 1002.73 1002.81 1003.01 1003.25 1003.45 1003.58 1003.56 1003.91 1004.19 1004.55 1004.97 1005.42 1005.94 1006.80 1007.21 1007.20 1007.56 1008.05 1008.01 1008.50 1008.80 1009.51 1009.85 1010.00 1010.22 1010.42 1010.32 1010.09 1009.76 1009.43 1009.19 1009.08 1008.95
1003.59 1003.81 1003.12 1002.55 1001.72 1001.76 1001.75 1001.71 1001.41 1002.03 1002.44 1002.65 1002.91 1003.05 1003.08 1003.21 1003.32 1003.40 1003.56 1003.77 1004.02 1004.44 1004.80 1005.18 1005.74 1006.10 1006.00 1006.35 1006.79 1007.22 1007.75 1008.25 1008.64 1009.31 1009.62 1009.86 1010.02 1009.95 1009.94 1009.82 1009.73 1009.68 1009.70 1009.59
1003.11 1001.87 1001.68 1000.62 1000.72 1000.62 1000.56 1000.44 1000.87 1001.66 1001.89 1002.29 1002.84 1003.00 1002.91 1003.08 1003.20 1003.19 1003.41 1003.36 1003.60 1003.82 1004.10 1004.52 1004.72 1005.04 1005.01 1005.24 1005.53 1006.08 1006.76 1007.46 1007.90 1008.24 1008.75 1009.02 1009.26 1009.32 1009.46 1009.62 1009.70 1009.74 1009.66 1009.63
Thickness
5584 5589 5600 5608 5609 5620 5609 5619 5624 5621 5601 5602 5622 5633 5642 5647 5645 5635 5641 5642 5639 5633 5627 5618 5613 5608 5603 5599 5593 5587 5581 5574 5568 5566 5565 5563 5562 5559 5557 5554 5551 5547 5543 5542
5576 5588 5605 5599 5604 5597 5600 5608 5615 5602 5593 5592 5618 5628 5641 5648 5651 5646 5638 5636 5637 5629 5620 5613 5608 5603 5597 5592 5586 5578 5571 5564 5559 5556 5553 5549 5547 5547 5545 5541 5537 5533 5530 5527
5585 5585 5582 5586 5584 5587 5593 5601 5606 5597 5592 5594 5598 5635 5646 5637 5632 5629 5629 5634 5634 5626 5616 5610 5604 5598 5591 5585 5575 5567 5561 5555 5552 5546 5542 5539 5536 5537 5535 5533 5529 5523 5518 5513
5577 5571 5572 5575 5584 5586 5588 5583 5582 5581 5591 5602 5596 5608 5648 5645 5632 5626 5623 5628 5627 5620 5613 5609 5601 5592 5585 5574 5565 5560 5554 5549 5543 5537 5533 5527 5524 5523 5520 5515 5510 5505 5500 5498
5568 5561 5562 5568 5577 5577 5579 5570 5573 5573 5581 5577 5595 5590 5646 5629 5629 5631 5622 5617 5617 5613 5606 5600 5594 5586 5576 5566 5558 5552 5547 5540 5535 5528 5521 5516 5512 5507 5503 5498 5494 5490 5487 5486
5549 5543 5556 5562 5549 5557 5557 5562 5563 5565 5572 5571 5597 5593 5633 5640 5638 5639 5625 5615 5612 5605 5599 5594 5586 5576 5570 5562 5554 5548 5540 5534 5527 5518 5510 5504 5498 5493 5488 5482 5479 5477 5474 5473
5541 5542 5538 5543 5541 5543 5551 5561 5560 5566 5562 5585 5570 5573 5628 5629 5623 5628 5622 5615 5609 5603 5595 5589 5583 5576 5566 5557 5548 5540 5532 5526 5516 5507 5499 5493 5485 5479 5473 5469 5466 5463 5462 5462
5551 5547 5535 5540 5551 5555 5548 5554 5576 5580 5584 5590 5552 5573 5622 5620 5617 5614 5609 5605 5607 5601 5593 5587 5578 5569 5561 5552 5541 5533 5526 5516 5506 5498 5488 5480 5472 5467 5463 5458 5455 5453 5452 5452
5549 5547 5511 5516 5526 5531 5535 5534 5550 5538 5484 5555 5594 5599 5616 5610 5605 5599 5597 5595 5595 5594 5589 5581 5571 5562 5554 5544 5533 5523 5514 5505 5496 5486 5477 5470 5462 5457 5452 5448 5445 5444 5444 5443
5534 5531 5502 5496 5505 5513 5520 5533 5541 5536 5555 5565 5580 5578 5611 5606 5610 5604 5596 5595 5596 5590 5583 5576 5563 5554 5545 5534 5525 5515 5505 5494 5484 5474 5466 5459 5452 5447 5445 5442 5441 5439 5437 5435
5525 5520 5494 5491 5504 5526 5501 5512 5509 5538 5553 5571 5584 5598 5609 5616 5611 5594 5595 5594 5595 5586 5581 5573 5559 5548 5537 5527 5519 5508 5496 5484 5473 5462 5454 5448 5443 5441 5438 5437 5435 5432 5431 5429
5508 5503 5522 5511 5504 5502 5523 5525 5526 5554 5544 5548 5549 5585 5591 5601 5602 5594 5587 5583 5583 5577 5573 5569 5554 5541 5532 5523 5512 5499 5488 5475 5462 5452 5444 5440 5437 5435 5432 5430 5428 5428 5427 5423
5488 5496 5514 5504 5492 5491 5501 5517 5523 5503 5521 5536 5558 5584 5573 5581 5580 5575 5574 5575 5569 5565 5563 5555 5544 5534 5526 5516 5505 5492 5479 5465 5452 5444 5437 5434 5431 5430 5428 5426 5425 5424 5422 5418
5487 5476 5503 5537 5527 5521 5502 5518 5519 5517 5531 5548 5561 5569 5577 5574 5563 5563 5566 5567 5563 5555 5547 5543 5536 5529 5519 5507 5495 5482 5468 5455 5444 5436 5431 5428 5426 5424 5423 5422 5421 5420 5418 5415
5467 5474 5481 5497 5496 5497 5509 5514 5514 5501 5529 5547 5559 5557 5569 5550 5543 5537 5541 5546 5545 5543 5538 5532 5527 5520 5509 5498 5487 5473 5458 5444 5435 5430 5427 5425 5422 5421 5421 5419 5418 5417 5415 5412
5452 5471 5466 5476 5485 5479 5479 5505 5507 5507 5505 5520 5537 5552 5561 5566 5552 5536 5532 5530 5534 5531 5528 5523 5517 5508 5504 5493 5483 5468 5454 5439 5431 5427 5424 5423 5421 5421 5420 5417 5414 5413 5411 5411
5442 5443 5453 5481 5473 5476 5480 5521 5518 5510 5510 5519 5523 5563 5554 5543 5538 5535 5537 5532 5532 5530 5527 5520 5515 5509 5501 5492 5481 5467 5452 5438 5430 5427 5425 5423 5421 5419 5417 5415 5413 5412 5411 5410
5435 5447 5459 5466 5450 5490 5537 5536 5545 5535 5538 5525 5540 5550 5548 5529 5530 5531 5529 5532 5533 5529 5525 5520 5513 5506 5498 5489 5476 5464 5449 5439 5430 5427 5426 5423 5418 5416 5416 5415 5415 5412 5409 5409
5427 5437 5444 5461 5475 5513 5533 5530 5519 5524 5548 5554 5546 5551 5550 5543 5538 5551 5532 5528 5529 5525 5523 5518 5511 5504 5493 5483 5473 5460 5447 5441 5432 5430 5427 5423 5419 5417 5416 5415 5414 5411 5409 5408
5412 5416 5443 5429 5476 5501 5528 5505 5499 5515 5537 5560 5559 5557 5548 5537 5551 5560 5519 5518 5519 5516 5510 5507 5503 5496 5487 5480 5471 5457 5450 5442 5438 5435 5429 5423 5422 5418 5416 5416 5414 5410 5406 5403
5406 5411 5434 5445 5469 5494 5516 5488 5493 5514 5542 5529 5541 5546 5541 5535 5540 5516 5511 5511 5510 5510 5504 5500 5493 5490 5485 5478 5469 5460 5453 5448 5445 5437 5428 5424 5423 5421 5419 5418 5415 5411 5407 5404
5425 5425 5432 5442 5451 5472 5489 5475 5509 5519 5514 5517 5520 5523 5525 5533 5528 5512 5511 5507 5506 5505 5499 5495 5489 5487 5482 5475 5471 5463 5460 5455 5446 5439 5432 5429 5426 5426 5425 5423 5421 5417 5413 5410
5428 5465 5453 5467 5485 5491 5485 5498 5499 5499 5510 5507 5514 5512 5517 5519 5524 5526 5523 5517 5512 5507 5502 5494 5490 5487 5482 5474 5474 5471 5468 5457 5448 5442 5436 5431 5428 5425 5425 5425 5423 5421 5415 5411
5420 5440 5445 5450 5493 5484 5482 5488 5489 5491 5497 5500 5503 5507 5507 5512 5514 5512 5511 5510 5508 5505 5500 5495 5487 5485 5487 5481 5475 5475 5469 5461 5451 5445 5440 5434 5429 5429 5426 5425 5423 5422 5419 5415
5428 5422 5437 5447 5469 5478 5482 5489 5499 5494 5491 5492 5494 5497 5501 5505 5503 5505 5505 5503 5503 5500 5495 5492 5488 5486 5487 5485 5479 5474 5468 5460 5455 5447 5441 5436 5432 5429 5427 5424 5421 5418 5413 5410
5416 5441 5450 5477 5486 5494 5498 5496 5493 5490 5492 5491 5490 5494 5492 5494 5498 5500 5498 5500 5498 5496 5492 5488 5488 5487 5488 5486 5482 5476 5469 5460 5455 5450 5444 5440 5435 5430 5427 5424 5419 5415 5413 5410